Temperature
21 20 20 21 26 30 30 30 30 30 30 29 29 28 29 29 28 26 22 22 21 20 19 20 19 19 19 19 19 19 19 19 19 19 19 19 18 18 18 18 18 18 18 18 18 18 18 18 18
20 20 21 25 30 30 29 30 30 30 29 28 28 28 28 27 25 22 21 21 21 20 19 19 20 19 19 19 19 19 19 19 19 19 19 18 18 18 18 18 18 18 18 18 18 18 18 18 18
21 21 24 29 30 30 30 31 31 30 29 29 28 28 28 26 23 22 21 21 21 20 19 19 20 19 19 19 19 19 19 19 19 19 19 18 18 18 18 18 18 18 18 18 18 17 17 17 17
22 23 27 30 31 31 31 31 31 30 29 29 29 28 26 23 23 22 21 21 21 20 19 19 20 19 19 19 19 19 19 19 19 19 18 18 18 18 18 18 18 18 18 17 17 17 17 17 17
23 27 30 31 31 31 31 31 30 31 30 29 29 28 26 22 22 22 21 21 21 20 19 19 19 19 19 19 19 19 19 19 19 19 18 18 18 18 18 18 18 18 17 17 17 17 17 17 17
27 29 31 31 31 31 32 31 31 31 30 29 29 28 25 22 22 22 21 21 21 21 20 19 19 19 19 19 19 19 19 19 19 18 18 18 18 18 18 18 18 17 17 17 17 17 17 17 17
28 30 31 31 31 31 31 31 31 31 31 30 29 29 25 22 21 21 21 21 21 20 20 18 18 19 19 19 19 19 18 18 18 18 18 18 18 18 18 18 17 17 17 17 17 17 17 17 17
27 30 31 31 31 31 31 31 30 30 30 28 28 29 26 22 21 21 20 20 20 20 20 18 18 18 18 18 18 18 18 18 18 18 18 18 18 18 18 17 17 17 17 17 17 17 17 17 17
26 30 31 31 30 31 31 31 30 29 29 28 27 27 25 22 21 20 20 19 19 19 19 19 19 18 18 18 18 18 18 18 18 18 18 18 17 17 17 17 17 17 17 17 17 17 17 17 17
28 30 31 31 31 31 31 31 30 30 30 28 26 24 22 21 21 20 20 19 19 19 19 19 19 18 18 18 18 17 17 18 17 17 17 17 17 17 17 17 17 17 17 17 17 17 17 17 17
29 30 31 31 30 30 31 31 30 31 31 30 28 24 22 21 21 20 20 20 20 19 18 18 18 18 18 18 18 18 17 17 17 17 17 17 17 17 17 17 17 17 17 17 17 17 17 17 17
29 30 30 30 30 30 30 31 31 30 30 29 27 25 22 22 21 21 20 20 19 19 18 18 18 18 18 18 18 18 17 17 17 17 17 17 17 17 17 17 17 17 17 17 17 17 17 16 16
29 30 30 30 30 30 30 30 30 30 28 27 26 24 23 22 22 21 20 20 19 18 18 18 18 18 18 18 18 18 17 17 17 17 17 17 17 17 17 17 17 17 17 17 17 17 16 16 16
30 30 30 30 30 30 30 31 30 29 28 27 26 25 23 22 22 21 20 19 19 18 18 18 18 18 18 18 18 18 18 18 18 17 17 17 17 17 17 17 17 17 17 17 17 17 16 17 17
28 30 31 31 31 30 30 31 31 29 27 27 26 25 24 22 21 21 20 19 19 19 18 18 18 18 18 18 18 18 18 17 17 17 17 17 17 17 17 17 17 16 16 17 17 16 16 17 17
29 30 30 31 31 30 30 30 30 28 28 27 26 25 23 22 21 20 20 19 19 19 18 18 18 18 18 18 18 17 18 17 17 17 17 17 17 17 17 17 17 16 16 16 16 17 17 17 17
30 30 30 30 31 31 30 30 30 28 28 28 26 25 24 22 21 20 19 19 19 19 18 18 18 18 18 18 18 17 17 17 17 17 17 17 17 17 17 17 17 17 16 16 17 17 17 17 17
30 30 30 30 30 30 30 30 30 29 28 28 27 25 23 22 21 20 19 19 19 18 18 18 18 18 18 17 17 17 17 17 17 17 17 17 17 17 17 16 17 16 16 16 16 16 16 17 17
29 29 29 30 30 30 30 30 30 29 28 28 27 25 24 22 21 20 19 19 18 18 18 18 18 18 18 17 17 17 17 17 17 17 17 17 17 17 17 17 17 17 16 16 16 16 16 16 16
28 28 29 30 29 29 30 30 30 29 28 27 27 26 24 23 21 19 19 18 18 18 18 18 18 18 18 17 17 17 17 17 17 17 17 17 17 17 17 17 16 17 17 16 16 16 17 17 16
28 28 29 29 29 29 29 30 30 29 28 27 26 25 24 23 21 20 19 18 18 18 18 18 18 18 18 17 17 17 17 17 17 17 17 17 17 17 17 16 17 17 16 16 16 16 16 17 17
28 29 29 28 28 30 29 29 30 29 29 28 27 26 25 23 22 20 19 18 18 18 18 18 18 18 17 17 17 17 17 17 17 17 17 17 17 17 16 16 17 17 17 16 16 16 16 16 17
29 29 28 28 28 29 29 29 30 30 29 29 28 26 24 23 22 21 19 19 18 18 18 18 18 18 17 17 17 17 17 17 17 17 17 17 17 17 16 16 17 17 16 16 16 16 16 16 17
29 28 28 28 29 28 29 28 29 30 29 29 27 25 24 22 21 20 19 19 18 18 18 17 17 17 17 17 17 17 17 17 17 17 17 17 17 16 16 16 17 17 16 16 16 16 16 16 16
28 28 27 28 28 28 29 28 29 29 29 28 27 25 23 22 21 20 19 19 18 18 18 17 18 17 17 17 17 17 17 17 17 17 17 16 16 16 16 16 17 16 16 16 16 16 16 16 16
28 28 28 27 28 29 28 28 29 29 28 27 26 24 23 22 22 21 20 19 18 18 17 17 17 17 17 17 17 17 17 17 17 17 16 16 16 16 16 17 17 16 16 16 16 16 16 16 16
28 28 30 29 28 28 29 29 29 28 28 27 26 24 23 22 21 21 19 19 18 17 17 17 17 17 17 17 17 17 17 17 16 16 16 16 16 16 16 17 16 16 16 16 16 16 15 16 16
29 29 29 28 27 27 28 28 29 28 28 27 26 25 23 22 21 20 19 18 18 17 17 17 17 17 17 17 17 16 17 17 16 16 16 16 16 16 16 16 16 16 16 16 16 15 15 15 15
27 28 28 29 29 28 28 29 30 29 28 27 27 25 23 22 22 20 19 18 18 17 17 17 17 17 17 17 17 16 16 16 16 16 16 16 16 16 16 16 16 16 16 16 16 15 15 15 15
29 29 28 28 27 28 28 29 28 28 28 27 26 24 23 22 21 20 19 18 18 17 17 17 17 17 17 16 16 16 16 16 16 16 16 16 16 16 16 16 16 16 15 15 15 15 15 15 15
Wind_Speed
9 6 4 4 5 2 9 8 6 7 6 5 4 2 4 5 4 5 8 17 19 20 21 21 18 17 17 17 17 17 17 17 16 16 15 14 13 13 13 13 13 13 14 14 15 15 15 16 16
5 3 4 5 3 6 9 6 6 7 5 4 3 2 3 5 6 8 12 17 20 20 21 20 20 18 17 17 17 16 16 16 16 15 15 14 13 13 13 13 13 13 14 15 15 15 15 16 16
4 5 5 4 2 6 7 5 5 3 4 3 2 3 3 5 6 8 13 20 20 19 20 21 21 19 18 17 17 17 16 16 15 15 14 14 13 13 13 13 13 13 14 14 15 15 15 15 15
4 4 5 3 5 6 4 4 2 2 3 2 2 4 5 5 4 9 18 20 20 19 19 22 21 20 19 18 17 17 16 16 15 15 14 13 13 13 13 13 13 14 14 14 14 14 14 14 14
5 5 5 3 5 4 3 4 1 2 1 2 2 3 6 5 7 14 19 20 19 18 19 23 21 20 19 18 17 16 16 16 15 14 13 13 13 13 13 12 13 13 14 13 13 13 13 13 13
4 5 4 3 5 3 3 3 1 2 1 2 2 3 5 7 10 16 19 18 18 18 18 21 21 20 19 18 17 16 16 15 15 14 13 13 13 13 12 12 13 13 13 13 12 12 12 12 12
6 4 2 1 2 3 5 5 3 3 3 2 2 3 6 9 12 15 17 16 16 17 17 19 20 19 18 17 17 16 16 15 14 14 14 13 13 12 12 12 12 12 12 12 12 12 12 12 12
5 4 4 2 1 3 5 4 4 4 2 1 3 2 6 12 14 15 15 15 15 14 15 16 17 17 18 17 17 16 15 15 14 14 14 13 13 12 12 12 12 12 11 11 11 11 11 11 11
5 6 4 1 1 3 6 6 4 3 2 3 2 1 7 17 17 17 15 14 14 14 14 15 15 15 16 16 17 16 15 14 14 13 13 13 12 12 12 12 12 11 11 11 10 11 10 10 11
5 7 1 2 3 7 8 7 4 4 5 5 5 6 12 18 18 19 18 18 18 17 15 13 14 14 14 13 15 14 14 14 12 12 13 10 8 8 10 13 11 11 11 10 9 10 10 9 10
6 6 3 4 5 8 9 7 4 6 6 5 6 11 15 17 18 18 19 18 18 17 15 14 14 14 13 10 12 10 10 11 11 11 11 8 8 8 9 10 11 10 11 10 10 10 8 7 6
8 8 7 8 8 9 10 8 6 6 6 3 3 12 17 18 18 18 18 18 17 17 16 14 13 12 12 11 10 9 8 9 9 10 11 9 7 7 7 6 8 8 7 6 7 6 5 5 5
11 10 9 10 10 10 9 9 7 7 4 1 5 12 16 16 15 16 16 16 16 17 16 15 14 13 11 10 9 9 8 9 9 10 10 9 7 7 7 6 5 6 7 7 6 5 6 5 5
7 10 12 11 10 9 9 9 7 6 2 3 7 11 13 14 15 15 16 17 17 16 17 16 15 15 13 11 9 8 9 8 9 9 10 9 7 7 6 6 6 5 6 6 6 6 6 5 4
9 12 12 10 8 5 8 10 6 3 2 5 7 9 11 12 14 15 16 17 17 16 16 16 16 15 14 13 11 9 9 9 8 8 10 10 8 7 6 6 6 6 6 6 5 6 5 5 5
10 11 11 6 5 4 8 8 0 1 3 5 6 8 9 11 13 13 15 15 15 15 16 16 14 16 15 12 10 8 8 8 8 8 9 10 8 8 7 6 6 6 6 7 5 5 5 4 3
11 10 9 5 3 5 8 8 3 2 4 5 6 7 9 10 11 12 14 15 15 15 15 15 14 15 15 13 10 9 8 8 7 8 8 9 9 9 8 6 5 7 6 6 6 5 5 5 4
7 8 7 6 3 7 9 8 5 3 4 5 5 7 8 10 11 11 13 14 14 14 14 15 14 14 13 11 9 7 8 8 8 8 7 8 9 9 8 7 7 8 6 5 4 4 3 3 4
8 9 9 7 5 8 9 8 6 3 4 5 5 6 8 9 9 10 13 13 13 13 14 15 15 14 12 11 11 10 9 8 8 7 9 10 9 9 8 6 7 7 6 6 6 5 6 5 4
12 12 11 6 3 7 9 9 6 4 5 5 5 6 7 9 10 12 13 13 13 14 14 15 15 15 14 11 10 9 9 8 8 7 8 10 10 9 9 7 7 8 6 6 6 6 5 4 5
14 13 10 7 6 7 8 10 7 5 5 5 5 5 6 9 11 12 13 13 13 14 14 14 15 15 15 13 10 9 8 6 7 8 8 9 10 10 9 9 8 7 8 7 8 8 7 5 5
13 10 9 8 9 6 4 9 5 4 5 6 5 5 6 8 10 12 13 13 14 13 13 14 14 14 14 13 13 14 12 11 10 9 8 9 10 11 11 10 9 8 8 7 8 8 7 6 5
9 4 6 8 9 10 8 9 5 4 5 4 4 4 6 7 9 11 12 13 12 13 12 13 14 14 14 15 15 14 13 10 8 8 9 10 9 10 11 10 9 8 8 8 7 7 8 7 6
8 6 6 8 10 12 8 8 7 3 2 2 2 4 5 7 8 9 10 11 11 11 11 12 13 14 15 15 15 15 14 12 11 11 10 10 9 9 11 11 9 9 8 8 8 8 9 7 6
12 10 8 9 9 8 3 7 5 2 1 2 2 5 6 7 8 10 11 11 11 11 11 12 12 13 14 15 15 15 14 13 13 12 11 10 9 9 11 10 9 9 8 8 8 8 7 7 7
16 16 10 7 7 5 5 6 2 1 0 1 3 6 7 8 8 9 10 10 10 11 11 11 12 12 13 14 14 13 13 10 10 12 10 10 9 9 10 10 10 10 10 9 8 8 8 6 7
15 16 15 11 9 8 5 4 3 3 3 3 5 6 7 7 8 9 10 9 10 10 10 11 11 11 12 13 13 12 12 11 10 10 10 9 8 8 10 10 10 9 9 9 8 7 7 7 7
13 12 9 11 9 9 7 7 3 4 4 5 6 7 7 7 8 9 9 9 9 9 9 10 10 10 10 10 10 9 10 10 9 9 10 9 9 9 10 10 10 9 9 9 8 8 7 7 6
12 11 11 10 9 8 6 2 3 3 3 4 6 7 8 8 8 9 9 9 9 9 9 9 9 9 9 9 9 9 9 9 9 9 10 9 9 10 10 10 11 10 10 9 8 8 8 8 7
13 13 13 11 9 9 8 1 6 4 3 4 5 7 8 8 8 9 9 9 8 8 9 9 9 9 9 9 9 9 8 8 8 9 9 9 9 10 10 10 10 10 10 10 9 9 8 8 8
Wind_Direction
198 206 232 247 240 116 70 64 55 60 66 65 78 55 34 37 22 69 123 146 145 146 143 149 147 143 139 136 134 134 136 136 135 134 132 130 127 124 121 116 114 112 110 108 107 107 108 108 108
195 211 241 247 266 86 78 63 60 55 81 101 104 82 62 66 60 107 137 146 149 147 147 151 146 145 142 139 137 136 136 136 136 135 134 132 130 126 123 119 118 115 113 111 110 109 109 109 109
204 238 265 256 59 63 70 60 59 89 125 137 115 60 47 69 105 132 146 151 152 147 147 143 149 148 145 143 141 140 139 138 137 137 136 135 132 127 125 123 120 118 116 114 113 112 111 110 110
226 238 243 247 85 64 39 32 36 144 153 153 137 102 90 69 118 140 146 155 151 148 149 146 152 150 148 146 144 142 141 140 139 138 137 135 132 129 127 125 122 119 117 115 115 114 114 114 114
247 262 237 161 83 66 33 4 298 233 175 160 185 114 107 95 121 140 152 156 154 153 149 148 154 152 151 150 148 146 144 143 141 138 136 133 130 128 128 126 123 121 119 118 118 116 118 118 118
250 254 233 126 94 72 38 15 285 268 234 179 189 144 110 123 139 149 156 159 157 154 150 148 154 154 153 153 152 150 148 146 143 140 137 133 130 129 129 126 125 123 122 121 121 121 121 122 122
272 267 242 119 100 83 25 3 328 286 246 213 200 164 131 142 146 154 157 160 159 157 152 152 158 159 157 157 155 154 152 149 147 143 140 137 134 132 131 129 128 126 125 126 126 125 125 126 126
278 267 222 180 174 53 16 356 342 307 303 105 198 212 151 153 151 154 156 161 160 159 156 156 163 162 163 162 160 157 154 153 150 147 144 141 138 136 136 139 130 130 130 130 130 129 128 127 129
262 250 221 154 339 351 350 335 337 299 217 175 179 43 114 143 151 155 158 163 165 166 165 165 163 166 169 164 159 161 158 157 157 154 150 157 155 147 152 130 133 136 134 133 134 134 133 135 134
242 250 240 357 324 320 324 319 315 249 223 196 164 123 132 149 159 165 168 171 172 172 172 170 167 168 170 165 161 167 168 163 172 160 162 166 148 147 135 127 138 139 138 139 137 141 155 174 145
241 261 297 293 310 315 311 310 297 264 257 237 202 165 158 163 169 174 175 178 176 172 174 174 173 171 170 166 165 167 166 164 170 162 165 158 153 152 147 150 151 151 159 155 148 169 169 160 135
247 260 275 287 304 304 304 306 293 271 289 323 194 165 168 174 178 181 180 179 175 173 176 175 174 173 174 170 166 166 168 168 168 162 170 165 165 162 156 159 156 162 161 155 166 164 152 148 149
242 264 275 278 286 293 291 282 282 280 290 229 155 164 174 181 184 186 181 176 175 175 177 178 177 174 173 172 174 172 172 172 167 164 174 174 171 170 161 159 165 171 157 164 172 164 155 160 162
261 270 274 276 281 281 277 275 261 270 267 187 174 176 180 183 179 178 176 177 178 179 179 179 180 177 175 178 180 173 174 176 170 169 173 183 177 168 169 168 171 171 172 164 169 162 168 174 159
264 270 267 257 266 276 281 262 249 266 242 208 191 183 181 183 178 179 179 180 180 181 180 181 180 178 179 181 181 175 177 176 176 169 173 182 183 172 181 174 179 175 165 162 179 168 171 171 168
249 254 250 233 257 266 274 275 287 253 237 218 196 185 185 184 185 182 182 183 181 180 180 181 183 180 181 182 182 179 178 178 178 172 176 182 180 177 191 185 182 174 180 178 174 186 178 174 178
233 241 245 228 227 275 273 283 303 282 240 224 203 190 186 182 187 184 183 182 181 180 179 180 185 184 183 182 181 182 175 180 179 176 181 178 181 184 195 194 175 182 188 188 194 174 193 180 183
240 245 246 253 255 282 274 278 284 264 246 233 208 195 189 187 188 184 182 179 178 179 180 181 183 187 183 178 177 182 182 184 186 181 180 178 184 190 198 194 187 194 190 190 193 171 194 195 192
268 264 262 269 287 283 273 277 281 271 248 238 221 204 196 191 178 175 176 177 176 178 180 182 184 183 181 179 181 183 184 186 188 191 186 191 194 191 202 201 185 200 192 191 186 190 183 192 182
245 252 256 259 264 281 279 275 266 257 253 250 236 217 199 183 172 170 173 176 178 181 184 184 185 183 184 185 185 185 181 191 190 193 191 197 197 198 201 207 200 196 189 190 193 197 205 188 192
235 245 257 273 287 249 271 261 238 234 234 239 235 218 198 184 179 174 176 180 183 185 187 187 186 185 187 184 180 175 173 183 189 193 195 198 199 203 209 204 210 199 202 192 195 197 207 201 197
235 239 253 262 266 255 264 286 261 242 241 238 229 207 195 184 182 178 180 184 187 187 187 187 185 185 185 185 187 186 189 194 198 193 193 194 200 204 205 206 208 206 209 193 199 201 208 209 206
236 233 240 250 257 267 250 272 280 237 259 241 215 198 184 180 182 180 183 186 188 186 187 188 186 187 188 192 193 194 197 199 191 192 190 194 196 203 204 204 203 205 211 202 204 191 210 210 218
214 212 226 239 247 253 256 268 280 273 282 266 180 173 169 170 174 174 177 180 184 185 186 187 187 190 190 193 196 199 200 196 191 196 195 197 195 200 202 203 202 204 206 199 200 201 203 217 222
204 214 220 224 227 245 193 254 276 345 326 278 201 170 163 168 171 171 175 179 182 184 186 185 186 189 189 191 195 198 199 196 196 198 198 198 197 198 197 200 199 201 202 202 200 201 208 205 210
206 219 234 245 246 235 184 249 273 93 77 194 164 154 163 170 170 173 176 177 179 183 184 185 186 186 186 189 192 195 195 198 201 202 200 200 203 201 190 196 197 198 201 202 198 201 199 198 205
212 224 238 254 267 270 247 242 228 163 173 165 162 164 168 167 169 170 171 171 174 179 182 185 185 185 185 187 188 193 195 199 200 200 203 201 200 195 189 192 195 197 197 197 194 202 196 192 202
228 222 220 232 241 248 239 238 236 173 166 155 158 165 162 163 166 163 165 166 167 170 172 177 182 184 184 184 186 190 194 197 200 203 203 200 198 196 191 192 191 190 189 190 196 194 195 198 204
195 209 220 229 242 253 251 219 98 142 161 165 159 162 162 164 162 159 158 161 164 166 168 173 176 179 181 183 184 186 190 194 200 201 202 198 196 193 193 193 190 189 188 186 192 200 192 198 197
206 212 211 220 222 240 265 215 103 120 139 152 150 152 158 161 158 156 157 161 168 170 173 176 179 183 183 182 182 184 189 190 196 199 197 195 192 191 193 191 188 189 189 189 191 196 193 195 197
Height
1509 1509 1510 1511 1504 1494 1496 1493 1489 1490 1491 1495 1496 1496 1495 1497 1500 1509 1512 1513 1516 1520 1521 1524 1527 1530 1533 1535 1537 1539 1541 1543 1545 1546 1547 1549 1550 1551 1552 1553 1554 1555 1556 1556 1557 1558 1559 1560 1560
1512 1511 1512 1508 1495 1499 1500 1492 1491 1492 1495 1497 1498 1499 1498 1501 1506 1509 1511 1514 1517 1521 1523 1525 1528 1531 1534 1536 1539 1541 1543 1544 1546 1548 1549 1550 1552 1553 1554 1555 1556 1557 1558 1558 1559 1560 1561 1562 1563
1512 1511 1511 1499 1493 1497 1498 1492 1491 1494 1497 1498 1499 1500 1501 1505 1508 1510 1512 1515 1519 1522 1525 1525 1528 1532 1535 1537 1540 1542 1544 1546 1547 1549 1550 1552 1553 1554 1556 1557 1558 1559 1560 1561 1562 1563 1564 1564 1565
1513 1513 1508 1496 1494 1493 1493 1491 1492 1494 1496 1498 1498 1501 1505 1509 1510 1511 1512 1516 1520 1523 1526 1526 1529 1533 1536 1538 1541 1543 1545 1547 1549 1550 1552 1553 1555 1556 1557 1558 1560 1561 1562 1563 1564 1565 1566 1567 1568
1514 1509 1498 1493 1493 1492 1492 1492 1493 1493 1495 1497 1499 1500 1506 1509 1510 1512 1514 1518 1521 1525 1528 1528 1530 1534 1537 1539 1542 1544 1546 1548 1550 1552 1553 1555 1556 1558 1559 1560 1561 1562 1564 1565 1566 1567 1568 1569 1570
1512 1503 1496 1496 1494 1492 1491 1492 1493 1492 1494 1497 1499 1501 1507 1510 1511 1513 1516 1519 1523 1526 1529 1529 1532 1535 1538 1540 1543 1545 1547 1549 1551 1553 1555 1556 1558 1559 1560 1562 1563 1564 1565 1567 1568 1569 1570 1571 1572
1509 1499 1495 1494 1494 1493 1492 1492 1491 1491 1493 1496 1499 1500 1507 1510 1512 1514 1517 1521 1524 1527 1529 1530 1533 1535 1538 1541 1544 1546 1548 1550 1552 1554 1556 1558 1559 1561 1562 1563 1564 1566 1567 1568 1570 1571 1572 1573 1574
1509 1501 1494 1492 1494 1493 1492 1492 1493 1493 1493 1497 1500 1499 1504 1509 1511 1514 1517 1521 1524 1527 1530 1532 1535 1537 1539 1542 1544 1547 1549 1551 1553 1555 1557 1559 1560 1562 1563 1565 1566 1567 1569 1570 1571 1573 1574 1575 1576
1510 1501 1494 1492 1495 1493 1492 1492 1493 1494 1495 1497 1500 1501 1504 1506 1509 1513 1516 1520 1523 1526 1529 1532 1535 1537 1541 1544 1545 1548 1550 1552 1554 1556 1558 1560 1563 1564 1565 1566 1567 1569 1570 1571 1573 1575 1576 1577 1578
1507 1497 1492 1493 1494 1493 1492 1492 1492 1493 1492 1495 1499 1502 1503 1504 1507 1510 1514 1517 1521 1524 1528 1531 1535 1537 1541 1544 1545 1548 1551 1553 1556 1558 1559 1562 1564 1565 1567 1566 1568 1570 1571 1573 1574 1576 1577 1579 1580
1503 1496 1494 1494 1494 1494 1491 1490 1491 1490 1488 1491 1495 1500 1502 1504 1506 1509 1512 1515 1519 1522 1526 1530 1534 1537 1540 1543 1545 1548 1551 1553 1556 1557 1559 1562 1564 1566 1567 1568 1569 1571 1572 1575 1575 1577 1580 1581 1582
1501 1497 1497 1495 1494 1493 1491 1490 1489 1489 1489 1492 1494 1496 1499 1501 1504 1506 1509 1514 1518 1521 1525 1529 1532 1535 1539 1542 1545 1547 1550 1553 1556 1557 1559 1561 1564 1566 1568 1569 1571 1572 1574 1575 1577 1578 1580 1581 1582
1499 1496 1495 1494 1493 1491 1491 1489 1488 1489 1490 1492 1493 1495 1497 1499 1501 1503 1507 1512 1516 1519 1523 1526 1530 1533 1537 1540 1543 1546 1549 1552 1555 1556 1558 1561 1564 1566 1567 1569 1570 1573 1574 1575 1577 1579 1580 1581 1582
1496 1495 1493 1491 1490 1489 1488 1486 1486 1487 1489 1491 1493 1494 1496 1498 1498 1499 1504 1509 1513 1517 1520 1524 1527 1531 1535 1538 1541 1545 1548 1550 1554 1556 1558 1560 1563 1565 1567 1568 1570 1573 1574 1576 1577 1579 1580 1581 1583
1497 1494 1489 1486 1486 1487 1487 1483 1482 1486 1488 1489 1491 1493 1495 1497 1498 1500 1503 1507 1510 1514 1518 1521 1525 1529 1533 1536 1540 1543 1547 1549 1552 1555 1556 1559 1562 1564 1566 1569 1570 1572 1574 1575 1577 1578 1580 1581 1582
1493 1491 1489 1483 1485 1485 1487 1483 1481 1485 1486 1487 1489 1491 1494 1496 1498 1500 1503 1505 1509 1512 1515 1519 1523 1527 1531 1534 1538 1542 1545 1548 1551 1553 1555 1558 1561 1563 1565 1568 1570 1571 1573 1575 1576 1579 1580 1581 1582
1489 1489 1486 1484 1483 1483 1483 1482 1479 1483 1484 1485 1487 1489 1492 1495 1497 1498 1500 1504 1507 1510 1513 1516 1521 1524 1528 1532 1536 1540 1542 1546 1549 1552 1555 1557 1559 1561 1564 1567 1569 1570 1573 1575 1576 1578 1580 1581 1582
1488 1486 1486 1486 1482 1483 1481 1478 1477 1480 1482 1482 1485 1487 1490 1492 1494 1496 1498 1501 1505 1508 1512 1515 1518 1522 1526 1530 1533 1537 1540 1544 1547 1550 1553 1555 1558 1560 1563 1566 1567 1570 1572 1573 1575 1576 1578 1580 1581
1486 1488 1488 1484 1481 1482 1479 1477 1475 1477 1479 1480 1482 1485 1488 1491 1493 1494 1496 1499 1503 1506 1509 1512 1516 1519 1523 1527 1530 1534 1537 1541 1545 1548 1551 1554 1556 1559 1561 1565 1566 1568 1571 1572 1574 1575 1577 1579 1580
1489 1490 1486 1481 1481 1482 1478 1476 1473 1475 1477 1478 1480 1482 1485 1488 1491 1493 1495 1498 1501 1503 1506 1510 1513 1516 1520 1524 1528 1532 1535 1539 1543 1546 1548 1551 1554 1557 1560 1563 1565 1567 1569 1570 1572 1574 1576 1578 1579
1487 1487 1483 1484 1480 1478 1479 1475 1471 1471 1475 1477 1478 1480 1483 1485 1488 1491 1494 1497 1499 1501 1504 1507 1510 1513 1517 1521 1525 1529 1533 1536 1539 1543 1546 1549 1552 1555 1558 1560 1563 1565 1567 1569 1570 1572 1575 1577 1578
1486 1479 1481 1483 1484 1477 1480 1483 1470 1468 1470 1472 1475 1478 1480 1484 1487 1489 1492 1495 1497 1499 1502 1505 1508 1511 1515 1518 1522 1525 1528 1532 1536 1539 1543 1546 1549 1553 1555 1558 1560 1562 1565 1567 1569 1571 1573 1575 1576
1477 1477 1479 1480 1481 1482 1476 1481 1470 1465 1468 1468 1471 1475 1478 1482 1484 1487 1490 1492 1495 1498 1500 1502 1505 1508 1512 1515 1518 1522 1526 1530 1533 1537 1540 1543 1547 1550 1553 1555 1558 1560 1563 1565 1566 1568 1571 1573 1574
1476 1480 1480 1479 1477 1488 1477 1481 1475 1461 1465 1465 1470 1474 1478 1480 1483 1486 1488 1491 1493 1496 1498 1500 1502 1505 1508 1511 1515 1519 1523 1526 1530 1533 1537 1540 1544 1546 1549 1552 1555 1557 1560 1562 1564 1566 1568 1570 1572
1476 1482 1488 1489 1487 1482 1472 1478 1471 1461 1463 1466 1469 1473 1477 1479 1482 1484 1487 1489 1491 1494 1496 1498 1500 1502 1505 1508 1511 1515 1519 1523 1526 1530 1534 1537 1541 1543 1546 1549 1552 1554 1557 1559 1561 1563 1566 1568 1569
1472 1473 1484 1490 1484 1474 1475 1475 1463 1461 1464 1467 1469 1473 1476 1478 1480 1483 1485 1487 1489 1492 1494 1496 1497 1500 1503 1506 1509 1512 1516 1520 1524 1528 1531 1534 1537 1540 1543 1546 1548 1551 1554 1557 1559 1562 1563 1565 1567
1467 1468 1461 1470 1474 1479 1469 1465 1459 1460 1463 1465 1469 1472 1475 1477 1480 1482 1484 1486 1488 1490 1492 1494 1496 1498 1501 1504 1507 1510 1514 1518 1521 1524 1528 1531 1534 1537 1539 1542 1545 1548 1551 1554 1556 1559 1560 1562 1564
1458 1459 1465 1471 1484 1486 1474 1469 1463 1460 1461 1463 1467 1470 1474 1477 1479 1481 1483 1485 1487 1489 1491 1493 1495 1497 1499 1502 1505 1508 1511 1515 1518 1521 1524 1527 1531 1534 1536 1539 1542 1545 1548 1551 1553 1556 1558 1560 1562
1464 1464 1462 1463 1464 1476 1478 1468 1451 1456 1459 1462 1465 1469 1473 1475 1478 1480 1483 1485 1487 1489 1490 1492 1494 1496 1498 1501 1503 1506 1509 1512 1516 1518 1521 1524 1527 1530 1533 1536 1539 1542 1545 1548 1550 1553 1555 1557 1559
1451 1453 1458 1468 1470 1467 1467 1465 1453 1455 1459 1462 1464 1469 1472 1475 1477 1480 1482 1484 1486 1488 1490 1492 1493 1495 1497 1500 1502 1505 1508 1510 1513 1516 1519 1522 1525 1528 1531 1533 1536 1539 1542 1545 1548 1550 1553 1555 1557